User: anonymous   Login
Location: D�derode
(51.8092°N, 10.1065°E)
Time: 23:49:10
(UTC+00:00)
Language:

CRYOSAT 2 - Orbit

View from above orbital plane
View from above orbital plane
View from above satellite
View from above satellite

Ground track
Ground track

The orbit data is extracted from the following two-line orbital elements,

1 36508U 10013A   21061.01535889  .00000091  00000-0  21831-4 0  9995
2 36508  92.0212 169.9772 0008010  65.6014 294.6029 14.51907743577600
Epoch (UTC): 02 March 2021 00:22:07
Eccentricity: 0.0008010
inclination: 92.0212°
perigee height: 714 km
apogee height: 725 km
right ascension of ascending node: 169.9772°
argument of perigee: 65.6014°
revolutions per day: 14.51907743
mean anomaly at epoch: 294.6029°
orbit number at epoch: 57760

The dashed part of the orbit path shows where the satellite is in the earth's shadow,  

DLR